| time (UTC) | temp F | wind direction | speed MPH | gust MPH | rain 1hr in | rain 24hr in | rain mn in | humidity % | barometer mb |
| 20260504130602 | 46 | 228 | 0.0 | 0.0 | 0.00 | 0.00 | 0.00 | 53 | 1025.8 |
| 20260504110450 | 46 | 325 | 6.0 | 8.0 | 0.00 | 0.00 | 0.00 | 47 | 1024.5 |
| 20260504100412 | 48 | 310 | 4.0 | 6.0 | 0.00 | 0.00 | 0.00 | 45 | 1022.2 |
| 20260504081806 | 50 | 256 | 4.0 | 4.0 | 0.00 | 0.00 | 0.00 | 47 | 1019.4 |
| 20260504081302 | 50 | 257 | 3.0 | 3.0 | 0.00 | 0.00 | 0.00 | 47 | 1019.6 |
| 20260504080759 | 50 | 240 | 3.0 | 3.0 | 0.00 | 0.00 | 0.00 | 47 | 1019.3 |
| 20260504080255 | 50 | 236 | 3.0 | 3.0 | 0.00 | 0.00 | 0.00 | 47 | 1019.4 |
| 20260504070223 | 52 | 274 | 6.0 | 6.0 | 0.00 | 0.00 | 0.00 | 45 | 1019.0 |
| 20260504060143 | 55 | 236 | 4.0 | 4.0 | 0.00 | 0.00 | 0.00 | 41 | 1018.8 |
| 20260504050611 | 59 | 273 | 5.0 | 6.0 | 0.00 | 0.00 | 0.00 | 35 | 1018.9 |
| 20260504050108 | 58 | 274 | 6.0 | 6.0 | 0.00 | 0.00 | 0.00 | 35 | 1018.9 |
| 20260504045605 | 60 | 270 | 3.0 | 3.0 | 0.00 | 0.00 | 0.00 | 36 | 1018.8 |
| 20260504045100 | 62 | 258 | 2.0 | 2.0 | 0.00 | 0.00 | 0.00 | 31 | 1018.9 |
| 20260504044558 | 60 | 279 | 4.0 | 6.0 | 0.00 | 0.00 | 0.00 | 31 | 1018.8 |
| 20260504044055 | 62 | 272 | 4.0 | 4.0 | 0.00 | 0.00 | 0.00 | 33 | 1019.0 |
| 20260504043552 | 61 | 294 | 4.0 | 6.0 | 0.00 | 0.00 | 0.00 | 29 | 1018.8 |
| 20260504043049 | 60 | 266 | 1.0 | 1.0 | 0.00 | 0.00 | 0.00 | 32 | 1018.9 |
| 20260504042546 | 62 | 291 | 6.0 | 6.0 | 0.00 | 0.00 | 0.00 | 32 | 1018.9 |
| 20260504042043 | 62 | 274 | 2.0 | 2.0 | 0.00 | 0.00 | 0.00 | 29 | 1018.9 |
| 20260504041539 | 62 | 291 | 4.0 | 4.0 | 0.00 | 0.00 | 0.00 | 28 | 1018.7 |
| 20260504041035 | 62 | 335 | 2.0 | 3.0 | 0.00 | 0.00 | 0.00 | 29 | 1018.9 |
| 20260504040533 | 63 | 294 | 1.0 | 1.0 | 0.00 | 0.00 | 0.00 | 29 | 1018.8 |
| 20260504040029 | 63 | 320 | 3.0 | 3.0 | 0.00 | 0.00 | 0.00 | 29 | 1018.6 |
| 20260504035526 | 62 | 325 | 2.0 | 2.0 | 0.00 | 0.00 | 0.00 | 30 | 1018.7 |
| 20260504035022 | 62 | 276 | 2.0 | 2.0 | 0.00 | 0.00 | 0.00 | 30 | 1018.8 |
| 20260504034520 | 62 | 314 | 3.0 | 3.0 | 0.00 | 0.00 | 0.00 | 31 | 1018.8 |
| 20260504034017 | 62 | 309 | 4.0 | 4.0 | 0.00 | 0.00 | 0.00 | 31 | 1018.8 |
| 20260504033515 | 63 | 312 | 3.0 | 3.0 | 0.00 | 0.00 | 0.00 | 31 | 1018.6 |
| 20260504033012 | 63 | 344 | 3.0 | 3.0 | 0.00 | 0.00 | 0.00 | 31 | 1018.7 |
| 20260504032509 | 63 | 307 | 2.0 | 2.0 | 0.00 | 0.00 | 0.00 | 31 | 1018.6 |
| 20260504032005 | 62 | 336 | 2.0 | 3.0 | 0.00 | 0.00 | 0.00 | 31 | 1018.5 |
| 20260504031502 | 62 | 247 | 0.0 | 0.0 | 0.00 | 0.00 | 0.00 | 33 | 1018.5 |
| 20260504030959 | 62 | 255 | 0.0 | 0.0 | 0.00 | 0.00 | 0.00 | 32 | 1018.3 |
| 20260504030456 | 62 | 219 | 1.0 | 1.0 | 0.00 | 0.00 | 0.00 | 32 | 1018.6 |
| 20260504025952 | 62 | 184 | 2.0 | 2.0 | 0.00 | 0.00 | 0.00 | 33 | 1018.5 |
| 20260504025449 | 63 | 191 | 2.0 | 2.0 | 0.00 | 0.00 | 0.00 | 32 | 1018.5 |
| 20260504024946 | 64 | 205 | 2.0 | 2.0 | 0.00 | 0.00 | 0.00 | 31 | 1018.3 |
| 20260504024443 | 63 | 153 | 2.0 | 3.0 | 0.00 | 0.00 | 0.00 | 31 | 1018.3 |
| 20260504023940 | 64 | 219 | 2.0 | 2.0 | 0.00 | 0.00 | 0.00 | 31 | 1018.2 |
| 20260504023436 | 66 | 283 | 2.0 | 2.0 | 0.00 | 0.00 | 0.00 | 29 | 1018.2 |
| 20260504022932 | 67 | 329 | 4.0 | 4.0 | 0.00 | 0.00 | 0.00 | 26 | 1018.2 |
| 20260504022429 | 68 | 295 | 4.0 | 4.0 | 0.00 | 0.00 | 0.00 | 26 | 1018.0 |
| 20260504021925 | 68 | 304 | 6.0 | 7.0 | 0.00 | 0.00 | 0.00 | 26 | 1018.0 |
| 20260504021423 | 68 | 252 | 5.0 | 6.0 | 0.00 | 0.00 | 0.00 | 27 | 1018.0 |
| 20260504020920 | 69 | 283 | 3.0 | 3.0 | 0.00 | 0.00 | 0.00 | 26 | 1017.8 |
| 20260504020416 | 69 | 263 | 6.0 | 7.0 | 0.00 | 0.00 | 0.00 | 25 | 1018.0 |
| 20260504015913 | 69 | 274 | 6.0 | 7.0 | 0.00 | 0.00 | 0.00 | 25 | 1017.9 |
| 20260504015409 | 69 | 262 | 7.0 | 8.0 | 0.00 | 0.00 | 0.00 | 25 | 1017.9 |
| 20260504014905 | 70 | 259 | 9.0 | 10.0 | 0.00 | 0.00 | 0.00 | 24 | 1017.9 |
| 20260504014401 | 70 | 265 | 10.0 | 11.0 | 0.00 | 0.00 | 0.00 | 24 | 1017.9 |
| 20260504013859 | 71 | 275 | 6.0 | 7.0 | 0.00 | 0.00 | 0.00 | 25 | 1018.0 |
| 20260504013357 | 71 | 287 | 9.0 | 10.0 | 0.00 | 0.00 | 0.00 | 24 | 1018.0 |
| 20260504012853 | 71 | 297 | 9.0 | 13.0 | 0.00 | 0.00 | 0.00 | 23 | 1018.2 |
| 20260504012351 | 71 | 256 | 8.0 | 10.0 | 0.00 | 0.00 | 0.00 | 24 | 1018.0 |
| 20260504011848 | 72 | 249 | 10.0 | 13.0 | 0.00 | 0.00 | 0.00 | 23 | 1018.0 |
| 20260504011344 | 72 | 259 | 9.0 | 11.0 | 0.00 | 0.00 | 0.00 | 22 | 1018.0 |
| 20260504010841 | 72 | 278 | 7.0 | 8.0 | 0.00 | 0.00 | 0.00 | 23 | 1018.1 |
| 20260504010336 | 72 | 281 | 7.0 | 8.0 | 0.00 | 0.00 | 0.00 | 23 | 1018.0 |
| 20260504005833 | 73 | 265 | 16.0 | 18.0 | 0.00 | 0.00 | 0.00 | 22 | 1017.8 |
| 20260504005330 | 73 | 295 | 9.0 | 9.0 | 0.00 | 0.00 | 0.00 | 22 | 1018.5 |
| 20260504004827 | 73 | 265 | 10.0 | 11.0 | 0.00 | 0.00 | 0.00 | 21 | 1018.2 |
| 20260504004325 | 73 | 275 | 12.0 | 16.0 | 0.00 | 0.00 | 0.00 | 21 | 1018.6 |
| 20260504003821 | 74 | 268 | 8.0 | 13.0 | 0.00 | 0.00 | 0.00 | 22 | 1018.2 |
| 20260504003318 | 73 | 289 | 10.0 | 10.0 | 0.00 | 0.00 | 0.00 | 21 | 1018.5 |
| 20260504002815 | 73 | 311 | 10.0 | 10.0 | 0.00 | 0.00 | 0.00 | 21 | 1018.5 |
| 20260504002312 | 74 | 225 | 12.0 | 14.0 | 0.00 | 0.00 | 0.00 | 22 | 1018.1 |
| 20260504001809 | 73 | 276 | 11.0 | 13.0 | 0.00 | 0.00 | 0.00 | 21 | 1018.5 |
| 20260504001306 | 73 | 249 | 13.0 | 17.0 | 0.00 | 0.00 | 0.00 | 21 | 1018.5 |
| 20260504000803 | 74 | 307 | 11.0 | 14.0 | 0.00 | 0.00 | 0.00 | 21 | 1018.7 |
| 20260504000300 | 74 | 261 | 11.0 | 13.0 | 0.00 | 0.00 | 0.00 | 21 | 1018.7 |
| 20260503235758 | 73 | 258 | 5.0 | 7.0 | 0.00 | 0.00 | 0.00 | 21 | 1018.7 |
| 20260503235255 | 74 | 320 | 6.0 | 6.0 | 0.00 | 0.00 | 0.00 | 22 | 1018.7 |
| 20260503234753 | 73 | 241 | 7.0 | 9.0 | 0.00 | 0.00 | 0.00 | 22 | 1018.9 |
| 20260503234251 | 74 | 257 | 8.0 | 9.0 | 0.00 | 0.00 | 0.00 | 20 | 1018.8 |
| 20260503233748 | 74 | 294 | 10.0 | 13.0 | 0.00 | 0.00 | 0.00 | 21 | 1018.8 |
| 20260503233243 | 74 | 294 | 8.0 | 9.0 | 0.00 | 0.00 | 0.00 | 21 | 1018.8 |
| 20260503232741 | 74 | 296 | 14.0 | 16.0 | 0.00 | 0.00 | 0.00 | 21 | 1018.9 |
| 20260503232238 | 73 | 265 | 6.0 | 7.0 | 0.00 | 0.00 | 0.00 | 19 | 1018.8 |
| 20260503231736 | 74 | 268 | 11.0 | 13.0 | 0.00 | 0.00 | 0.00 | 20 | 1018.8 |
| 20260503231232 | 74 | 270 | 8.0 | 10.0 | 0.00 | 0.00 | 0.00 | 22 | 1018.9 |
| 20260503230728 | 74 | 253 | 11.0 | 13.0 | 0.00 | 0.00 | 0.00 | 20 | 1019.0 |
| 20260503230226 | 74 | 302 | 8.0 | 9.0 | 0.00 | 0.00 | 0.00 | 21 | 1019.0 |
| 20260503225723 | 75 | 308 | 11.0 | 13.0 | 0.00 | 0.00 | 0.00 | 21 | 1019.1 |
| 20260503225223 | 74 | 278 | 9.0 | 10.0 | 0.00 | 0.00 | 0.00 | 21 | 1018.9 |
| 20260503224720 | 73 | 291 | 4.0 | 6.0 | 0.00 | 0.00 | 0.00 | 20 | 1019.1 |
| 20260503224218 | 74 | 281 | 10.0 | 13.0 | 0.00 | 0.00 | 0.00 | 21 | 1019.4 |
| 20260503223716 | 73 | 282 | 6.0 | 8.0 | 0.00 | 0.00 | 0.00 | 23 | 1019.3 |
| 20260503223213 | 73 | 329 | 8.0 | 9.0 | 0.00 | 0.00 | 0.00 | 22 | 1019.3 |
| 20260503222709 | 74 | 334 | 11.0 | 14.0 | 0.00 | 0.00 | 0.00 | 20 | 1019.5 |
| 20260503222207 | 73 | 312 | 14.0 | 16.0 | 0.00 | 0.00 | 0.00 | 21 | 1019.3 |
| 20260503221706 | 73 | 309 | 6.0 | 8.0 | 0.00 | 0.00 | 0.00 | 21 | 1019.6 |
| 20260503221203 | 74 | 297 | 9.0 | 11.0 | 0.00 | 0.00 | 0.00 | 20 | 1019.5 |
| 20260503220659 | 74 | 286 | 10.0 | 11.0 | 0.00 | 0.00 | 0.00 | 21 | 1019.7 |
| 20260503220156 | 73 | 268 | 11.0 | 13.0 | 0.00 | 0.00 | 0.00 | 22 | 1019.7 |
| 20260503215653 | 73 | 280 | 7.0 | 9.0 | 0.00 | 0.00 | 0.00 | 25 | 1019.7 |
| 20260503215149 | 73 | 265 | 14.0 | 16.0 | 0.00 | 0.00 | 0.00 | 22 | 1019.9 |
| 20260503214648 | 73 | 341 | 4.0 | 6.0 | 0.00 | 0.00 | 0.00 | 20 | 1020.0 |
| 20260503214143 | 74 | 295 | 11.0 | 13.0 | 0.00 | 0.00 | 0.00 | 22 | 1020.2 |
| 20260503213637 | 74 | 284 | 6.0 | 8.0 | 0.00 | 0.00 | 0.00 | 23 | 1020.2 |
| 20260503213133 | 74 | 257 | 6.0 | 7.0 | 0.00 | 0.00 | 0.00 | 25 | 1020.2 |
| 20260503212631 | 72 | 282 | 11.0 | 13.0 | 0.00 | 0.00 | 0.00 | 22 | 1020.4 |
| 20260503212128 | 72 | 260 | 9.0 | 11.0 | 0.00 | 0.00 | 0.00 | 24 | 1020.6 |
| 20260503211626 | 73 | 320 | 14.0 | 18.0 | 0.00 | 0.00 | 0.00 | 22 | 1020.7 |
| 20260503211121 | 73 | 300 | 10.0 | 14.0 | 0.00 | 0.00 | 0.00 | 22 | 1020.8 |
| 20260503210618 | 73 | 291 | 5.0 | 6.0 | 0.00 | 0.00 | 0.00 | 24 | 1020.6 |
| 20260503210115 | 72 | 264 | 7.0 | 9.0 | 0.00 | 0.00 | 0.00 | 24 | 1020.8 |
| 20260503205610 | 71 | 262 | 8.0 | 9.0 | 0.00 | 0.00 | 0.00 | 26 | 1020.7 |
| 20260503205107 | 72 | 289 | 16.0 | 17.0 | 0.00 | 0.00 | 0.00 | 25 | 1021.0 |
| 20260503204604 | 72 | 264 | 7.0 | 9.0 | 0.00 | 0.00 | 0.00 | 24 | 1020.8 |
| 20260503204101 | 71 | 309 | 15.0 | 17.0 | 0.00 | 0.00 | 0.00 | 25 | 1021.1 |
| 20260503203558 | 71 | 273 | 7.0 | 8.0 | 0.00 | 0.00 | 0.00 | 26 | 1021.2 |
| 20260503203055 | 72 | 269 | 9.0 | 13.0 | 0.00 | 0.00 | 0.00 | 28 | 1021.2 |
| 20260503202553 | 71 | 299 | 4.0 | 4.0 | 0.00 | 0.00 | 0.00 | 25 | 1021.3 |
| 20260503202051 | 72 | 262 | 8.0 | 11.0 | 0.00 | 0.00 | 0.00 | 27 | 1021.1 |
| 20260503201549 | 72 | 339 | 8.0 | 8.0 | 0.00 | 0.00 | 0.00 | 26 | 1021.5 |
| 20260503201046 | 71 | 263 | 12.0 | 14.0 | 0.00 | 0.00 | 0.00 | 24 | 1021.4 |
| 20260503200542 | 72 | 273 | 6.0 | 7.0 | 0.00 | 0.00 | 0.00 | 25 | 1021.4 |
| 20260503200039 | 71 | 278 | 7.0 | 8.0 | 0.00 | 0.00 | 0.00 | 25 | 1021.5 |
| 20260503195536 | 71 | 276 | 16.0 | 21.0 | 0.00 | 0.00 | 0.00 | 25 | 1021.6 |
| 20260503195033 | 70 | 307 | 10.0 | 14.0 | 0.00 | 0.00 | 0.00 | 27 | 1021.8 |
| 20260503194530 | 71 | 342 | 9.0 | 11.0 | 0.00 | 0.00 | 0.00 | 27 | 1021.8 |
| 20260503194029 | 71 | 303 | 7.0 | 9.0 | 0.00 | 0.00 | 0.00 | 28 | 1022.0 |
| 20260503193527 | 71 | 276 | 8.0 | 9.0 | 0.00 | 0.00 | 0.00 | 27 | 1022.0 |
| 20260503193022 | 71 | 240 | 10.0 | 10.0 | 0.00 | 0.00 | 0.00 | 28 | 1022.1 |
| 20260503192518 | 69 | 309 | 5.0 | 6.0 | 0.00 | 0.00 | 0.00 | 29 | 1022.3 |
| 20260503192014 | 70 | 297 | 6.0 | 7.0 | 0.00 | 0.00 | 0.00 | 28 | 1022.1 |
| 20260503191511 | 69 | 233 | 8.0 | 9.0 | 0.00 | 0.00 | 0.00 | 31 | 1022.3 |
| 20260503191008 | 70 | 253 | 6.0 | 6.0 | 0.00 | 0.00 | 0.00 | 32 | 1022.5 |
| 20260503190505 | 69 | 298 | 6.0 | 7.0 | 0.00 | 0.00 | 0.00 | 33 | 1022.5 |
| 20260503190002 | 69 | 20 | 2.0 | 3.0 | 0.00 | 0.00 | 0.00 | 29 | 1022.8 |
| 20260503185458 | 70 | 307 | 11.0 | 11.0 | 0.00 | 0.00 | 0.00 | 30 | 1022.9 |
| 20260503184957 | 71 | 269 | 7.0 | 9.0 | 0.00 | 0.00 | 0.00 | 32 | 1023.0 |
| 20260503184454 | 69 | 293 | 6.0 | 7.0 | 0.00 | 0.00 | 0.00 | 30 | 1023.1 |
| 20260503183950 | 69 | 299 | 8.0 | 9.0 | 0.00 | 0.00 | 0.00 | 31 | 1023.1 |
| 20260503183447 | 68 | 278 | 8.0 | 9.0 | 0.00 | 0.00 | 0.00 | 31 | 1023.2 |
| 20260503182944 | 68 | 269 | 6.0 | 7.0 | 0.00 | 0.00 | 0.00 | 31 | 1023.2 |
| 20260503182443 | 69 | 285 | 11.0 | 13.0 | 0.00 | 0.00 | 0.00 | 29 | 1023.2 |
| 20260503181940 | 69 | 289 | 5.0 | 6.0 | 0.00 | 0.00 | 0.00 | 33 | 1023.5 |
| 20260503181437 | 70 | 358 | 5.0 | 7.0 | 0.00 | 0.00 | 0.00 | 31 | 1023.3 |
| 20260503180933 | 68 | 227 | 3.0 | 4.0 | 0.00 | 0.00 | 0.00 | 31 | 1023.3 |
| 20260503180432 | 69 | 277 | 2.0 | 3.0 | 0.00 | 0.00 | 0.00 | 35 | 1023.3 |
| 20260503175928 | 67 | 220 | 0.0 | 0.0 | 0.00 | 0.00 | 0.00 | 35 | 1023.8 |
| 20260503175426 | 67 | 26 | 3.0 | 4.0 | 0.00 | 0.00 | 0.00 | 33 | 1023.8 |
| 20260503174921 | 66 | 268 | 3.0 | 4.0 | 0.00 | 0.00 | 0.00 | 35 | 1023.9 |
| 20260503174420 | 67 | 20 | 4.0 | 6.0 | 0.00 | 0.00 | 0.00 | 37 | 1024.0 |
| 20260503173920 | 66 | 288 | 6.0 | 7.0 | 0.00 | 0.00 | 0.00 | 37 | 1024.0 |
| 20260503173416 | 66 | 289 | 4.0 | 4.0 | 0.00 | 0.00 | 0.00 | 39 | 1024.0 |
| 20260503172913 | 65 | 241 | 4.0 | 4.0 | 0.00 | 0.00 | 0.00 | 38 | 1023.9 |
| 20260503172411 | 66 | 248 | 3.0 | 3.0 | 0.00 | 0.00 | 0.00 | 39 | 1024.4 |
| 20260503171907 | 64 | 177 | 2.0 | 2.0 | 0.00 | 0.00 | 0.00 | 40 | 1024.4 |
| 20260503171404 | 64 | 229 | 4.0 | 4.0 | 0.00 | 0.00 | 0.00 | 41 | 1024.3 |
| 20260503170901 | 64 | 324 | 4.0 | 4.0 | 0.00 | 0.00 | 0.00 | 44 | 1024.5 |
| 20260503170357 | 63 | 240 | 1.0 | 1.0 | 0.00 | 0.00 | 0.00 | 41 | 1024.6 |
| 20260503150749 | 51 | 267 | 4.0 | 4.0 | 0.00 | 0.00 | 0.00 | 62 | 1025.4 |
| 20260503150245 | 51 | 255 | 5.0 | 6.0 | 0.00 | 0.00 | 0.00 | 62 | 1025.4 |
| 20260503140210 | 46 | 258 | 3.0 | 3.0 | 0.00 | 0.00 | 0.00 | 71 | 1026.2 |